EW2804 Weather Reports


Display with metric or nautical units.
time (UTC)temp
F
wind
direction
speed
MPH
gust
MPH
rain 1hr
in
rain 24hr
in
rain mn
in
humidity
%
barometer
mb
20260506071112 58 53 1.0 10.0 0.00 0.00 0.00 72 1008.3
20260506062052 59 49 2.0 8.0 0.00 0.00 0.00 71 1008.6
20260506061115 59 11 2.0 8.0 0.00 0.00 0.00 72 1008.4
20260506050911 60 341 2.0 8.0 0.00 0.00 0.00 74 1008.6
20260506044824 61 306 2.0 8.0 0.00 0.00 0.00 74 1008.3
20260506043839 61 332 2.0 7.0 0.00 0.00 0.00 74 1008.4
20260506042810 61 40 2.0 8.0 0.00 0.00 0.00 74 1008.5
20260506041816 62 26 3.0 8.0 0.00 0.00 0.00 73 1008.3
20260506040754 62 314 2.0 9.0 0.00 0.00 0.00 74 1008.2
20260506035747 62 346 2.0 9.0 0.00 0.00 0.00 74 1008.1
20260506034713 63 5 2.0 8.0 0.00 0.00 0.00 73 1007.8
20260506032524 64 0 2.0 8.0 0.00 0.00 0.00 73 1007.4
20260506031505 64 13 3.0 9.0 0.00 0.00 0.00 73 1007.2
20260506030441 65 19 2.0 10.0 0.00 0.00 0.00 72 1007.3
20260506025453 65 44 2.0 10.0 0.00 0.00 0.00 72 1007.1
20260506024502 65 339 2.0 8.0 0.00 0.00 0.00 71 1007.0
20260506022355 67 9 3.0 9.0 0.00 0.00 0.00 70 1006.3
20260506021325 68 9 1.0 8.0 0.00 0.00 0.00 71 1005.9
20260506020328 68 35 1.0 6.0 0.00 0.00 0.00 71 1005.7
20260506015330 68 5 1.0 5.0 0.00 0.00 0.00 70 1005.3
20260506014252 68 13 1.0 5.0 0.00 0.00 0.00 69 1005.2
20260506013238 68 30 1.0 4.0 0.00 0.00 0.00 68 1005.3
20260506012218 68 37 1.0 11.0 0.00 0.00 0.00 68 1005.0
20260506011202 69 34 3.0 11.0 0.00 0.00 0.00 67 1004.9
20260506010131 69 32 1.0 9.0 0.00 0.00 0.00 67 1004.4
20260506005109 70 344 3.0 10.0 0.00 0.00 0.00 66 1004.4
20260506004100 71 0 3.0 10.0 0.00 0.00 0.00 66 1003.8
20260506003119 72 13 2.0 9.0 0.00 0.00 0.00 65 1003.7
20260506002125 72 47 2.0 9.0 0.00 0.00 0.00 65 1003.5
20260506001056 73 323 3.0 8.0 0.00 0.00 0.00 64 1003.6
20260505235053 74 30 3.0 11.0 0.00 0.00 0.00 63 1003.6
20260505232928 76 34 3.0 10.0 0.00 0.00 0.00 62 1003.4
20260505231927 77 27 3.0 10.0 0.00 0.00 0.00 61 1003.1
20260505230922 79 10 3.0 10.0 0.00 0.00 0.00 59 1003.1
20260505225928 80 332 2.0 8.0 0.00 0.00 0.00 60 1003.0
20260505224943 81 317 3.0 8.0 0.00 0.00 0.00 58 1002.8
20260505223924 82 302 2.0 8.0 0.00 0.00 0.00 58 1002.4
20260505222907 83 319 2.0 7.0 0.00 0.00 0.00 56 1002.5
20260505221924 84 351 2.0 7.0 0.00 0.00 0.00 53 1002.1
20260505220926 85 325 2.0 8.0 0.00 0.00 0.00 53 1002.2
20260505215936 85 327 2.0 8.0 0.00 0.00 0.00 54 1002.1
20260505214946 85 335 2.0 7.0 0.00 0.00 0.00 51 1001.9
20260505213941 86 0 3.0 7.0 0.00 0.00 0.00 47 1002.1
20260505211903 87 319 2.0 8.0 0.00 0.00 0.00 45 1001.9
20260505210838 87 285 2.0 7.0 0.00 0.00 0.00 49 1002.0
20260505205854 87 290 2.0 7.0 0.00 0.00 0.00 54 1002.1
20260505204847 88 240 2.0 6.0 0.00 0.00 0.00 55 1002.1
20260505203905 88 205 3.0 8.0 0.00 0.00 0.00 57 1002.1
20260505202911 88 244 2.0 10.0 0.00 0.00 0.00 59 1002.2
20260505201836 88 271 3.0 10.0 0.00 0.00 0.00 57 1002.4
20260505200836 87 236 3.0 10.0 0.00 0.00 0.00 55 1002.7
20260505195853 87 227 3.0 9.0 0.00 0.00 0.00 57 1002.5
20260505194838 87 216 3.0 12.0 0.00 0.00 0.00 59 1002.5
20260505193820 86 227 3.0 12.0 0.00 0.00 0.00 61 1002.7
20260505192833 86 217 3.0 10.0 0.00 0.00 0.00 61 1002.8
20260505191851 86 217 3.0 9.0 0.00 0.00 0.00 63 1002.5
20260505190837 85 194 4.0 9.0 0.00 0.00 0.00 61 1002.6
20260505185855 85 198 2.0 8.0 0.00 0.00 0.00 64 1002.6
20260505184819 84 172 3.0 11.0 0.00 0.00 0.00 66 1002.5
20260505183841 83 232 3.0 11.0 0.00 0.00 0.00 63 1002.6
20260505182901 84 227 4.0 10.0 0.00 0.00 0.00 63 1002.8
20260505181920 84 265 3.0 11.0 0.00 0.00 0.00 65 1002.6
20260505180938 84 263 3.0 11.0 0.00 0.00 0.00 66 1002.7
20260505175912 83 211 3.0 11.0 0.00 0.00 0.00 65 1002.8
20260505174911 83 224 3.0 9.0 0.00 0.00 0.00 66 1002.8
20260505173903 82 236 3.0 8.0 0.00 0.00 0.00 70 1002.7
20260505172916 81 208 3.0 8.0 0.00 0.00 0.00 69 1002.7
20260505171931 81 212 2.0 8.0 0.00 0.00 0.00 68 1002.8
20260505170906 80 256 3.0 11.0 0.00 0.00 0.00 70 1002.8
20260505165832 79 238 3.0 11.0 0.00 0.00 0.00 70 1002.7
20260505164815 79 253 3.0 9.0 0.00 0.00 0.00 70 1002.8
20260505163826 79 188 3.0 10.0 0.00 0.00 0.00 71 1002.8
20260505162808 78 225 2.0 11.0 0.00 0.00 0.00 71 1002.7
20260505161754 78 232 3.0 11.0 0.00 0.00 0.00 71 1002.7
20260505160809 77 227 3.0 10.0 0.00 0.00 0.00 72 1002.7
20260505152546 77 271 4.0 12.0 0.00 0.00 0.00 72 1002.7
20260505151548 77 229 2.0 10.0 0.00 0.00 0.00 74 1002.5
20260505150512 76 236 3.0 10.0 0.00 0.00 0.00 76 1002.5
20260505140145 74 244 1.0 8.0 0.00 0.00 0.00 78 1002.6
20260505124914 71 146 2.0 12.0 0.00 0.00 0.00 81 1002.2
20260505123903 71 242 1.0 9.0 0.00 0.00 0.00 81 1002.1
20260505122901 71 219 2.0 8.0 0.00 0.00 0.00 81 1001.9
20260505121846 71 144 2.0 8.0 0.00 0.00 0.00 81 1001.8
20260505120837 71 236 1.0 9.0 0.00 0.00 0.00 81 1001.8
20260505115850 71 243 1.0 9.0 0.00 0.00 0.00 81 1001.8
20260505114852 71 237 1.0 7.0 0.00 0.00 0.00 81 1001.7
20260505113846 71 217 2.0 11.0 0.00 0.00 0.00 81 1001.5
20260505112831 71 122 2.0 8.0 0.00 0.00 0.00 81 1001.5
20260505111834 71 207 1.0 8.0 0.00 0.00 0.00 81 1001.5
20260505110817 70 138 1.0 6.0 0.00 0.00 0.00 81 1001.6
20260505100528 71 218 2.0 12.0 0.00 0.00 0.00 79 1001.3
20260505095507 72 173 3.0 12.0 0.00 0.00 0.00 78 1001.4
20260505094459 72 248 3.0 10.0 0.00 0.00 0.00 78 1001.4
20260505093509 72 220 2.0 10.0 0.00 0.00 0.00 78 1001.4
20260505092531 72 150 3.0 10.0 0.00 0.00 0.00 78 1001.6
20260505091456 72 240 3.0 9.0 0.00 0.00 0.00 77 1001.6
20260505090419 72 217 3.0 8.0 0.00 0.00 0.00 77 1001.8
20260505085412 73 188 2.0 9.0 0.00 0.00 0.00 76 1001.9
20260505083259 73 191 3.0 10.0 0.00 0.00 0.00 75 1001.9
20260505082304 73 163 2.0 10.0 0.00 0.00 0.00 75 1001.8
20260505081316 73 198 2.0 10.0 0.00 0.00 0.00 74 1001.9
20260505075137 74 140 2.0 12.0 0.00 0.00 0.00 72 1002.0
20260505074114 74 207 2.0 9.0 0.00 0.00 0.00 72 1002.2
20260505073122 74 111 2.0 13.0 0.00 0.00 0.00 71 1002.5
20260505072125 74 238 2.0 13.0 0.00 0.00 0.00 71 1002.7